SOYUZ-MS 16

Last updated on Wed Oct 21 2020 00:02:12 GMT+0000 (Coordinated Universal Time)

1 45476U 20023A 20294.50417795 .00000572 00000-0 18344-4 0 9996 2 45476 51.6436 88.3920 0001398 52.1008 54.4538 15.49316145251444

Satellite not in orbit

SOYUZ-MS 16